This is the latest recevied weather packets stored in our database for station/object VR2OT-10. If no packets are shown the sender has not sent any weather packets the latest 10 day(s).
| Time | Temp. | Humidity | Pressure | Rain* | Wind** | Luminosity | Snow |
|---|---|---|---|---|---|---|---|
| 1777422739 | 25° C | 88% | 1010.7 hPa | - | 0 m/s | - | - |
| 1777421838 | 25° C | 92% | 1010.5 hPa | - | 0 m/s | - | - |
| 1777420938 | 25° C | 93% | 1010.3 hPa | - | 0 m/s | - | - |
| 1777418237 | 23.33° C | 92% | 1009.8 hPa | - | 0 m/s | - | - |
| 1777417338 | 22.78° C | 94% | 1009.5 hPa | - | 0.89 m/s, 315° | - | - |
| 1777416438 | 22.78° C | 94% | 1009.2 hPa | - | 0.89 m/s, 315° | - | - |
| 1777415539 | 22.78° C | 94% | 1009.2 hPa | - | - | - | - |
| 1777414638 | 22.78° C | 94% | 1009.1 hPa | - | 0.45 m/s, 270° | - | - |
| 1777413738 | 22.78° C | 93% | 1009.2 hPa | - | 0.45 m/s, 315° | - | - |
| 1777412838 | 22.78° C | 93% | 1009.1 hPa | - | 0.45 m/s, 315° | - | - |
| 1777411939 | 22.78° C | 92% | 1008.8 hPa | - | 0.89 m/s, 270° | - | - |
| 1777411037 | 22.22° C | 92% | 1008.7 hPa | - | 0 m/s | - | - |
| 1777410138 | 22.22° C | 93% | 1008 hPa | - | 1.34 m/s, 315° | - | - |
| 1777409237 | 22.22° C | 92% | 1007.8 hPa | - | 0.89 m/s, 0° | - | - |
| 1777408337 | 22.22° C | 91% | 1008.3 hPa | - | 0.89 m/s, 315° | - | - |
| 1777407438 | 22.22° C | 90% | 1008.5 hPa | - | 0.45 m/s, 45° | - | - |
| 1777406539 | 22.78° C | 90% | 1008.3 hPa | - | 1.79 m/s, 315° | - | - |
| 1777405638 | 22.78° C | 85% | 1008.6 hPa | - | 1.79 m/s, 315° | - | - |
| 1777404740 | 22.78° C | 90% | 1008.7 hPa | - | 4.02 m/s, 315° | - | - |
| 1777403838 | 22.78° C | 90% | 1009 hPa | - | 3.13 m/s, 315° | - | - |
| 1777402938 | 24.44° C | 90% | 1009.3 hPa | - | 4.92 m/s, 270° | - | - |
| 1777402037 | 25° C | 91% | 1009.1 hPa | - | 1.79 m/s, 90° | - | - |
| 1777400237 | 25° C | 86% | 1009 hPa | - | - | - | - |
| 1777399338 | 25.56° C | 85% | 1009.3 hPa | - | 1.34 m/s, 135° | - | - |
| 1777396637 | 25.56° C | 84% | 1009.7 hPa | - | 1.34 m/s, 135° | - | - |
* Rain since midnight (hover to see other rain measurements)
** Current wind speed in m/s (hover to see current wind gust speed)